Wetbulb
71.02 68.77 67.11 67.38 67.51 68.16 68.09 67.74 66.34 65.92 63.03 61.18 57.81 58.47 58.96 58.92 58.62 57.73 57.88 57.45 57.85 58.05 58.15 56.91 55.99 56.36 55.04 54.87 54.67 54.63 53.75 53.48 50.51 52.55 53.82 55.36 55.27 54.79 53.70 52.89 51.94 53.91 54.54
66.75 66.14 65.44 65.94 67.31 66.79 65.39 64.99 64.62 63.61 60.41 56.73 56.70 57.22 57.60 57.08 57.37 57.45 57.17 57.44 56.89 55.54 55.19 54.48 54.07 54.16 54.75 54.89 54.10 53.65 53.12 53.18 50.83 49.86 52.16 52.13 52.61 51.53 50.57 51.19 51.37 53.01 53.50
65.59 65.33 65.10 65.11 64.38 62.81 62.04 62.35 60.74 59.49 57.75 57.95 58.18 56.10 56.38 57.12 57.33 57.38 56.69 55.77 55.80 54.39 54.37 53.78 53.41 52.98 52.35 52.30 52.54 52.05 51.57 50.62 50.81 48.61 47.54 48.33 48.48 49.06 48.90 50.39 51.32 52.41 52.84
64.73 63.76 62.41 60.75 59.63 59.85 60.58 60.50 58.85 58.73 58.53 57.85 57.58 56.71 56.28 56.10 55.94 55.46 54.42 55.06 55.15 53.74 54.05 52.97 51.53 50.21 49.57 49.59 50.17 49.33 48.43 46.70 46.46 45.51 45.46 45.92 46.68 48.66 48.17 48.02 48.41 50.30 49.92
61.32 59.88 58.54 58.31 58.77 59.58 58.18 57.56 57.54 56.33 56.51 56.28 55.55 54.83 54.25 53.78 52.73 54.27 54.54 54.29 54.04 53.19 52.91 52.03 49.48 47.48 45.28 45.19 45.50 45.87 45.60 43.98 43.82 43.86 43.98 44.63 44.35 44.31 45.30 46.97 46.16 47.52 48.16
56.60 55.70 56.65 56.97 57.50 55.27 55.79 54.75 54.38 54.20 53.74 53.25 52.74 51.72 50.94 49.70 44.45 46.67 52.88 53.50 52.73 51.73 50.91 50.04 49.56 46.32 46.45 45.61 43.16 42.45 42.02 42.48 42.26 41.88 42.96 42.40 43.14 43.76 44.85 43.91 44.28 42.80 39.61
52.91 52.26 52.08 53.58 52.96 51.42 51.10 50.29 50.94 52.08 51.78 50.96 50.67 50.73 49.84 48.52 42.48 44.08 47.72 51.93 50.75 49.52 48.92 48.37 47.30 45.91 43.15 44.26 45.63 44.89 43.69 40.96 41.06 42.31 41.87 42.14 41.25 41.82 41.71 42.40 41.20 40.33 40.71
50.42 49.74 49.32 48.21 47.21 47.09 46.80 47.50 47.23 49.31 50.02 49.67 49.63 49.51 48.29 44.63 40.73 42.27 45.78 50.31 49.00 47.16 46.18 46.52 45.74 43.56 40.10 40.59 45.17 45.13 45.49 45.72 44.43 42.83 42.72 42.57 42.12 42.16 42.34 42.10 41.60 42.62 43.92
48.88 47.97 47.43 47.65 46.91 45.27 44.52 45.12 47.93 48.47 48.41 48.92 49.36 48.60 47.03 45.38 40.49 41.03 46.16 47.92 46.47 45.77 43.89 40.71 41.94 41.08 35.07 35.86 43.59 42.82 43.39 43.55 44.46 42.50 41.28 39.91 38.74 38.41 39.34 43.06 42.50 39.61 37.73
48.28 47.52 47.69 47.89 45.66 44.99 45.82 47.24 48.26 48.44 47.84 48.35 47.75 47.20 44.00 44.77 38.52 39.87 44.34 46.50 45.74 44.36 44.68 43.23 34.46 35.89 34.33 34.98 41.54 40.47 39.47 39.93 42.82 43.92 44.85 44.46 44.07 44.58 42.84 44.46 43.17 38.62 37.54
48.00 46.89 46.18 45.86 45.02 46.01 47.04 47.16 47.18 47.10 46.95 46.80 46.22 46.13 45.39 43.81 42.13 38.96 39.34 45.95 44.83 43.51 42.40 41.20 39.31 34.27 34.47 34.07 35.70 37.74 36.92 37.86 42.46 43.45 43.53 43.56 43.88 44.14 43.75 44.27 44.64 41.95 40.16
45.97 44.03 43.56 44.47 45.62 46.14 46.19 46.31 46.32 46.33 45.55 45.36 44.62 43.84 44.01 43.61 40.14 38.16 37.97 38.25 41.96 42.53 41.00 40.57 39.12 34.14 34.37 34.04 37.18 33.78 35.15 39.11 42.30 42.02 41.88 41.39 41.37 41.73 42.49 43.57 44.74 45.24 44.97
45.46 44.98 45.62 45.50 45.51 44.83 45.32 45.38 45.21 46.17 45.00 44.36 43.83 43.09 42.60 42.85 41.81 37.77 37.62 37.97 37.43 41.05 40.35 35.98 35.34 34.80 36.78 38.33 35.52 36.07 38.01 40.62 40.48 40.12 39.93 40.47 41.16 42.09 43.47 43.57 44.78 45.69 46.19
47.51 46.13 45.59 44.64 44.34 44.80 45.05 45.51 44.90 44.67 44.33 44.08 43.56 42.85 42.99 43.76 44.12 44.65 44.09 42.66 38.50 42.65 39.53 42.14 39.09 37.93 36.36 38.59 41.07 40.93 40.82 40.18 39.39 39.13 39.49 40.46 41.55 40.91 40.88 42.25 41.70 42.37 42.12
46.16 44.88 43.36 43.56 43.47 44.37 44.04 44.50 44.07 43.05 43.63 44.29 44.12 44.10 41.97 39.98 37.68 36.01 38.05 40.90 41.37 38.69 40.31 42.68 41.59 41.15 40.66 40.51 40.81 40.84 40.78 40.22 39.21 39.43 39.06 38.69 38.83 39.27 39.60 41.96 41.58 41.09 40.05
42.92 43.20 41.99 42.11 42.27 41.91 41.06 39.58 35.81 36.80 36.65 36.35 36.66 39.96 39.01 36.32 35.06 34.45 34.14 33.98 34.26 34.60 41.30 40.49 39.86 39.75 39.14 39.16 39.05 39.27 39.97 38.97 39.06 39.34 38.80 38.32 37.20 37.74 38.07 40.51 40.94 39.83 39.03
43.34 44.18 42.76 42.78 42.90 42.21 41.79 40.18 37.85 37.21 36.21 35.65 35.01 34.74 35.11 34.77 34.35 34.13 34.13 33.95 34.38 37.53 40.36 39.77 38.92 38.85 38.62 38.84 38.83 39.01 38.74 39.20 40.14 39.36 38.64 37.98 37.22 37.83 38.28 38.96 39.53 38.95 38.95
43.95 40.65 44.06 43.94 43.95 43.37 42.67 41.98 41.68 40.32 39.02 38.56 35.95 36.36 34.32 34.20 34.23 34.64 34.93 36.22 40.86 40.01 40.02 39.08 38.53 38.71 38.54 38.49 38.60 38.59 39.09 38.71 38.72 38.85 38.38 37.95 37.57 37.21 37.22 37.95 38.77 38.19 38.49
43.96 44.17 44.55 44.55 43.94 42.61 43.88 44.02 43.30 42.26 40.75 39.44 38.96 36.97 35.97 34.21 34.17 34.88 35.67 41.27 40.01 39.37 39.49 39.03 39.09 38.65 38.56 38.67 38.67 38.72 39.00 37.97 37.74 38.15 37.98 37.47 37.57 37.12 37.11 37.89 38.41 35.34 36.07
43.77 39.20 41.42 43.75 44.07 44.22 43.86 43.14 43.01 42.76 42.42 41.84 41.09 40.46 41.11 40.13 40.86 40.68 40.99 40.84 40.16 39.60 39.54 39.08 38.89 38.85 38.56 38.30 38.39 38.21 38.17 37.88 37.65 37.51 37.30 37.42 37.85 37.35 36.81 37.33 37.95 38.12 38.64
43.55 44.20 40.14 44.56 44.35 44.25 43.82 43.30 43.10 42.50 41.43 40.74 39.47 36.95 29.74 41.26 40.27 40.04 40.08 40.04 39.72 39.51 39.36 39.32 38.99 38.70 38.51 38.43 38.01 37.79 37.53 37.41 37.00 36.67 36.65 37.88 37.79 37.74 37.43 37.68 38.12 38.82 38.92
44.43 44.47 44.33 43.91 44.06 43.83 43.90 43.70 43.04 42.10 41.28 40.04 38.98 37.32 31.33 41.98 40.63 40.24 40.18 40.20 40.36 40.29 40.34 39.69 38.81 38.45 38.43 38.12 37.85 37.34 36.80 35.91 35.67 35.93 35.82 37.51 38.84 37.61 37.52 37.07 37.97 38.11 38.26
44.61 44.02 43.79 43.80 43.17 39.67 43.04 43.12 42.58 42.23 41.45 41.19 40.78 40.35 40.56 40.59 40.28 40.13 39.91 40.37 40.37 40.24 40.19 39.67 38.65 38.20 38.59 38.77 38.64 37.71 36.03 34.46 34.03 35.70 34.61 35.98 38.31 36.94 39.12 37.49 37.21 37.09 37.43
44.42 43.99 43.04 42.87 43.31 43.25 42.98 42.50 41.91 38.78 41.21 40.94 40.82 40.71 40.63 40.60 40.39 39.91 40.45 40.33 40.24 40.26 40.16 39.77 38.62 37.71 38.01 38.13 38.14 37.51 36.13 33.36 33.60 34.77 34.09 36.23 37.03 36.57 37.10 36.20 36.98 36.93 37.26
44.65 44.05 43.58 42.81 43.10 42.57 42.15 42.17 41.84 41.56 41.19 40.91 40.51 40.53 40.82 40.97 40.66 40.80 41.09 41.21 40.82 40.22 39.35 39.32 38.77 37.86 37.49 37.12 36.48 35.05 30.80 28.69 30.79 28.87 34.59 36.45 37.31 37.31 36.32 35.77 36.48 36.60 36.71
44.64 44.24 43.79 43.52 42.99 42.78 42.37 41.89 41.53 41.49 40.83 40.74 40.86 41.33 41.37 41.51 41.11 41.73 41.81 41.03 40.20 39.93 39.06 39.49 38.40 37.27 37.23 37.34 34.35 29.78 29.42 28.85 30.39 28.65 31.76 36.82 36.98 36.87 35.43 35.21 35.95 35.62 35.66
MSLP
1002.94 1004.26 1005.62 1006.96 1008.22 1009.04 1010.00 1011.04 1012.28 1013.29 1014.38 1015.02 1016.00 1016.11 1016.36 1017.66 1018.42 1018.50 1018.58 1018.71 1018.74 1018.55 1018.47 1018.78 1018.75 1018.56 1018.03 1017.75 1017.63 1017.11 1016.77 1016.41 1015.59 1014.76 1014.64 1014.04 1013.72 1013.22 1012.87 1012.44 1011.92 1011.00 1009.95
1003.46 1004.75 1006.08 1007.26 1008.22 1009.40 1010.71 1011.74 1012.83 1013.77 1014.90 1015.40 1016.07 1016.71 1016.92 1018.36 1018.70 1018.93 1018.58 1018.88 1018.80 1018.91 1019.26 1019.10 1018.90 1018.58 1018.64 1018.49 1017.91 1017.95 1017.29 1017.09 1016.40 1015.28 1014.64 1013.82 1013.32 1013.21 1012.71 1012.40 1011.42 1010.55 1009.93
1003.99 1005.18 1006.38 1007.60 1008.66 1010.17 1011.36 1012.40 1013.47 1014.54 1015.37 1016.03 1016.68 1017.22 1017.61 1018.52 1018.92 1019.16 1018.92 1019.20 1019.26 1019.54 1019.46 1019.32 1019.35 1019.46 1019.31 1019.24 1018.68 1018.34 1017.62 1017.42 1016.51 1015.79 1014.59 1013.80 1013.48 1012.87 1012.63 1011.82 1011.21 1010.42 1009.44
1004.51 1005.52 1006.73 1008.34 1009.56 1011.08 1012.22 1012.93 1013.86 1014.75 1015.54 1016.37 1016.90 1017.54 1018.42 1018.84 1019.15 1019.30 1019.68 1019.59 1019.48 1019.83 1019.84 1020.03 1020.23 1020.39 1020.28 1019.98 1019.20 1018.98 1018.48 1017.98 1016.95 1015.98 1014.96 1014.00 1013.43 1013.19 1012.86 1011.78 1010.88 1010.54 1009.54
1005.18 1006.40 1007.66 1009.00 1010.36 1011.63 1012.65 1013.61 1014.56 1015.62 1016.34 1017.04 1017.52 1018.53 1019.09 1019.40 1019.84 1020.07 1019.94 1019.76 1019.76 1020.07 1020.38 1020.45 1021.17 1021.30 1021.29 1021.16 1020.57 1020.02 1019.46 1018.69 1017.70 1016.62 1015.48 1014.61 1014.21 1013.89 1013.12 1012.73 1011.86 1010.84 1010.22
1005.96 1007.29 1008.43 1009.46 1010.99 1012.64 1013.63 1014.48 1015.41 1016.37 1017.17 1017.82 1018.43 1018.96 1019.82 1020.58 1021.32 1020.90 1020.36 1020.32 1020.42 1020.71 1020.82 1020.92 1020.92 1021.32 1021.14 1020.86 1020.97 1020.75 1020.34 1019.77 1018.84 1017.86 1016.52 1015.95 1015.53 1015.05 1014.41 1013.84 1012.72 1011.62 1010.63
1006.78 1008.17 1009.03 1010.46 1012.14 1013.62 1014.62 1015.54 1016.30 1017.04 1017.88 1018.64 1019.20 1019.75 1020.50 1021.53 1022.12 1021.86 1021.22 1021.01 1021.26 1021.63 1021.62 1021.58 1021.16 1021.58 1021.83 1021.36 1020.82 1020.38 1019.92 1019.76 1019.53 1018.88 1017.76 1017.21 1016.81 1016.44 1015.90 1014.53 1013.87 1013.12 1011.74
1007.49 1008.78 1010.02 1011.55 1013.18 1014.45 1015.37 1016.16 1017.00 1017.76 1018.40 1019.08 1019.82 1020.41 1021.44 1022.74 1022.95 1022.53 1021.96 1021.82 1022.04 1022.18 1022.27 1022.18 1022.26 1022.48 1023.10 1022.84 1021.41 1020.44 1019.67 1019.15 1019.22 1018.90 1018.56 1017.98 1017.62 1017.25 1016.49 1015.37 1014.14 1012.88 1011.90
1008.32 1009.52 1010.94 1012.16 1013.48 1014.88 1015.73 1016.49 1017.40 1018.07 1019.01 1019.62 1020.43 1021.14 1022.14 1023.21 1023.43 1023.04 1022.14 1022.17 1022.30 1022.35 1022.83 1023.72 1023.27 1023.53 1024.15 1023.39 1022.02 1020.88 1020.00 1019.40 1018.66 1018.46 1018.19 1017.78 1017.56 1017.00 1016.50 1014.90 1013.40 1012.70 1011.72
1009.20 1010.41 1011.86 1013.06 1014.00 1015.25 1016.32 1017.07 1018.10 1018.85 1019.51 1020.21 1021.22 1022.18 1023.01 1023.45 1023.92 1023.33 1022.51 1022.20 1022.08 1022.21 1022.68 1023.30 1024.91 1024.80 1024.86 1024.26 1022.53 1021.66 1020.75 1020.22 1018.89 1017.82 1017.20 1016.52 1016.29 1015.73 1015.47 1014.87 1013.76 1013.24 1012.72
1010.11 1011.38 1012.65 1014.10 1014.87 1016.10 1017.14 1018.00 1018.79 1019.48 1020.42 1021.23 1022.04 1022.73 1023.40 1023.68 1024.22 1024.05 1023.52 1022.77 1022.41 1022.48 1022.76 1023.26 1024.28 1025.14 1025.10 1024.38 1023.34 1022.78 1022.27 1021.34 1019.13 1018.06 1017.17 1016.48 1016.04 1015.42 1014.99 1014.57 1014.07 1013.42 1012.82
1010.86 1012.22 1013.86 1014.90 1015.84 1017.00 1018.08 1018.86 1019.70 1020.56 1021.12 1021.77 1022.40 1022.87 1023.66 1024.10 1024.66 1025.03 1024.81 1024.46 1023.67 1023.51 1023.77 1024.32 1024.66 1025.26 1024.68 1024.06 1023.06 1022.98 1022.05 1020.68 1019.42 1018.45 1017.46 1016.68 1016.14 1015.60 1015.26 1014.59 1013.98 1013.12 1012.44
1011.75 1013.31 1014.68 1015.82 1017.15 1018.26 1018.88 1019.38 1020.18 1020.84 1021.21 1021.64 1022.15 1022.70 1023.48 1024.22 1024.99 1025.46 1025.17 1024.86 1024.91 1024.36 1024.82 1025.39 1025.25 1024.87 1023.67 1022.86 1023.13 1022.60 1021.62 1020.84 1019.94 1018.93 1018.09 1017.29 1016.74 1016.28 1015.51 1014.67 1013.61 1012.66 1011.72
1012.64 1014.38 1015.68 1016.87 1017.96 1018.90 1019.45 1020.00 1020.51 1021.07 1021.43 1021.77 1022.31 1023.01 1023.59 1024.02 1024.34 1024.28 1024.48 1024.36 1025.11 1024.06 1024.99 1024.15 1024.43 1023.96 1023.47 1022.64 1022.33 1022.03 1021.84 1021.43 1020.81 1019.89 1019.06 1018.29 1017.45 1016.81 1015.83 1014.91 1013.40 1012.42 1011.44
1014.03 1015.51 1016.85 1017.78 1018.63 1019.48 1020.44 1021.24 1022.07 1022.94 1022.58 1022.48 1022.86 1023.28 1024.24 1025.31 1026.58 1026.50 1026.08 1025.63 1025.63 1025.68 1025.14 1024.03 1023.81 1023.30 1022.88 1022.72 1022.47 1022.30 1021.98 1021.65 1021.07 1020.53 1019.87 1019.05 1018.25 1017.66 1016.54 1015.14 1013.84 1012.92 1011.86
1015.03 1016.37 1017.54 1018.39 1019.56 1020.62 1021.75 1023.19 1024.51 1024.56 1024.54 1024.60 1024.56 1024.88 1026.08 1026.95 1027.38 1027.28 1027.31 1027.02 1026.94 1026.12 1024.94 1024.33 1024.21 1023.88 1023.66 1023.37 1023.00 1022.70 1022.37 1022.13 1021.66 1021.01 1020.58 1019.99 1019.41 1018.60 1017.39 1015.57 1014.48 1013.81 1012.55
1015.74 1016.74 1017.62 1018.46 1019.51 1020.49 1021.82 1023.08 1024.24 1025.98 1026.08 1026.36 1026.76 1026.99 1027.14 1027.76 1027.81 1027.93 1027.58 1027.20 1026.57 1025.51 1025.19 1024.99 1024.86 1024.60 1024.38 1024.10 1023.76 1023.42 1022.85 1022.72 1022.26 1021.67 1021.32 1020.90 1020.69 1019.54 1017.92 1016.22 1015.14 1014.60 1013.21
1016.87 1017.36 1017.85 1018.67 1019.60 1020.67 1021.72 1022.71 1023.60 1024.53 1025.45 1026.76 1027.47 1027.38 1028.24 1028.26 1028.30 1028.14 1027.86 1027.18 1026.13 1025.80 1025.76 1025.62 1025.52 1025.26 1025.04 1024.82 1024.34 1023.93 1023.62 1023.36 1022.82 1022.35 1022.15 1021.84 1021.66 1020.21 1018.72 1017.10 1016.07 1015.28 1014.01
1017.01 1017.88 1018.62 1019.26 1020.16 1021.02 1021.61 1022.36 1023.27 1024.21 1025.12 1026.10 1027.28 1027.76 1028.23 1028.37 1028.08 1027.70 1027.14 1026.52 1026.48 1026.29 1026.18 1026.13 1026.14 1025.90 1025.69 1025.32 1024.84 1024.63 1024.30 1024.12 1023.67 1023.13 1022.89 1022.69 1022.38 1020.98 1019.46 1018.12 1017.13 1015.94 1014.62
1018.59 1019.30 1019.80 1020.36 1020.81 1021.38 1022.00 1022.82 1023.44 1023.98 1024.53 1025.23 1026.01 1026.56 1026.82 1027.31 1027.10 1027.13 1027.07 1027.01 1026.92 1026.85 1026.80 1026.74 1026.69 1026.33 1026.08 1026.02 1025.52 1025.22 1024.84 1024.47 1024.22 1023.88 1023.58 1023.42 1023.00 1021.80 1020.22 1018.89 1017.83 1016.17 1014.94
1019.35 1019.80 1020.30 1020.67 1021.30 1021.86 1022.55 1023.16 1023.71 1024.35 1025.13 1025.78 1026.48 1027.45 1027.42 1026.76 1027.04 1027.24 1027.35 1027.46 1027.40 1027.50 1027.47 1027.23 1026.98 1026.87 1026.54 1026.46 1026.22 1025.90 1025.55 1025.20 1025.12 1024.73 1024.22 1023.88 1023.44 1022.22 1020.98 1019.73 1018.41 1016.84 1015.63
1019.72 1020.05 1020.72 1021.10 1021.94 1022.47 1023.10 1023.64 1024.21 1024.85 1025.46 1026.02 1026.83 1027.74 1027.69 1027.16 1027.40 1027.55 1027.72 1027.84 1027.74 1027.94 1028.02 1027.79 1027.44 1027.34 1027.30 1027.10 1026.92 1026.58 1026.28 1026.08 1026.02 1025.43 1024.77 1024.15 1023.56 1022.39 1021.39 1020.31 1018.63 1017.22 1016.08
1020.44 1020.87 1021.30 1021.83 1022.87 1023.62 1023.67 1024.17 1024.64 1025.18 1025.64 1026.04 1026.51 1026.89 1027.19 1027.46 1027.76 1027.96 1028.26 1028.24 1028.31 1028.35 1028.39 1028.29 1028.04 1027.90 1027.94 1027.72 1027.52 1027.32 1027.06 1027.21 1027.29 1026.19 1025.55 1024.41 1023.57 1022.59 1021.52 1020.76 1019.12 1017.81 1016.62
1021.13 1021.78 1022.18 1022.81 1023.15 1023.44 1023.98 1024.55 1025.24 1025.73 1025.88 1026.32 1026.83 1027.19 1027.60 1027.92 1028.20 1028.56 1028.45 1028.68 1028.69 1028.64 1028.70 1028.64 1028.64 1028.59 1028.46 1028.28 1028.09 1028.07 1028.16 1028.67 1028.16 1026.97 1026.49 1024.74 1023.62 1022.78 1021.87 1021.12 1019.70 1018.75 1017.48
1021.81 1022.40 1022.82 1023.42 1023.54 1024.02 1024.67 1025.05 1025.51 1025.93 1026.33 1026.75 1027.19 1027.60 1028.02 1028.29 1028.40 1028.66 1028.73 1028.77 1028.80 1028.85 1028.90 1028.90 1028.83 1028.82 1028.77 1028.75 1028.82 1029.00 1029.42 1029.36 1028.79 1028.30 1026.65 1025.17 1023.78 1023.00 1022.43 1021.60 1020.35 1019.34 1018.40
1022.49 1023.00 1023.35 1023.66 1024.05 1024.42 1024.90 1025.34 1025.84 1026.32 1026.76 1027.25 1027.56 1027.82 1028.20 1028.39 1028.57 1028.71 1028.80 1028.84 1028.80 1028.76 1028.93 1028.85 1028.98 1029.08 1028.98 1028.68 1029.48 1029.85 1029.62 1029.34 1028.76 1028.30 1027.40 1025.10 1023.94 1023.20 1022.91 1021.97 1020.91 1020.11 1019.26
Wind_Speed
15 17 18 17 17 16 17 16 17 16 15 15 12 12 13 9 7 6 6 5 6 6 6 6 5 6 7 7 7 7 8 8 11 11 11 12 14 14 15 15 16 15 14
18 18 17 18 17 16 14 16 17 16 15 13 12 14 13 10 8 6 6 6 7 7 7 5 8 7 8 7 7 8 8 10 10 14 13 12 13 14 15 16 13 13 15
19 18 17 17 17 16 16 17 18 17 16 14 14 13 12 9 8 7 7 7 8 8 6 8 9 9 8 8 7 9 9 10 10 11 12 11 11 11 14 14 14 16 14
18 18 19 18 19 17 18 19 18 17 16 14 13 13 11 9 8 8 7 7 9 7 8 8 9 9 9 10 9 10 10 11 10 10 11 11 11 13 12 14 15 14 16
18 19 19 19 19 18 19 18 17 15 15 14 15 12 10 8 6 8 8 9 8 8 7 7 10 9 9 8 9 11 11 10 10 11 11 11 12 14 15 14 15 15 15
19 20 20 22 21 19 19 17 17 17 15 15 13 13 11 9 10 12 5 8 9 7 7 7 7 13 12 6 5 8 6 10 11 11 11 13 15 14 14 14 15 17 14
21 19 21 21 22 20 18 17 16 17 16 15 14 14 13 12 8 8 6 9 9 9 9 9 9 10 13 13 8 6 5 6 5 11 13 13 15 16 16 17 16 15 15
21 21 21 22 20 18 17 18 15 15 15 14 14 14 13 9 5 4 6 10 10 11 11 11 10 12 14 14 12 10 10 9 10 9 11 11 11 12 13 14 16 16 14
22 22 21 21 21 18 17 16 14 16 15 14 13 14 13 11 6 7 4 8 9 10 12 13 12 12 17 20 11 12 12 11 8 5 11 12 14 16 16 12 12 15 14
22 22 21 20 20 19 16 16 16 15 15 13 15 14 13 11 10 11 6 6 7 7 8 10 17 13 14 16 12 13 13 13 14 14 12 11 11 10 7 12 12 13 12
23 22 21 19 20 18 17 16 16 16 16 15 15 13 13 12 12 15 18 8 7 7 7 7 9 10 7 12 11 12 12 14 12 11 11 10 12 12 12 12 13 12 9
23 24 21 19 15 16 18 16 17 16 16 15 14 12 11 12 12 13 13 14 11 8 8 7 8 9 5 5 11 12 14 12 10 11 11 11 12 13 13 13 15 13 10
24 23 21 21 18 16 16 16 14 13 12 12 10 10 10 9 9 9 8 9 11 9 7 3 8 11 6 3 2 9 10 11 11 12 13 13 13 13 15 14 14 16 15
25 23 20 19 16 16 12 11 11 10 10 10 10 9 8 7 6 5 6 6 8 4 8 4 3 7 1 5 8 10 11 10 11 12 12 13 13 14 14 14 14 14 13
22 20 18 15 15 13 13 10 11 13 9 10 9 9 9 9 9 12 12 8 7 6 8 5 6 8 9 9 10 11 10 11 11 12 12 14 14 14 14 14 14 14 15
20 15 14 14 15 14 15 16 22 19 21 21 21 13 12 13 12 12 10 9 9 12 4 7 8 9 10 10 10 10 11 12 12 12 12 13 14 14 15 14 14 15 16
18 17 16 15 14 15 14 14 15 15 20 19 18 18 17 12 11 7 5 4 8 7 8 8 8 9 9 9 10 11 11 11 12 12 13 13 14 14 16 15 15 15 16
19 18 15 14 14 14 13 13 12 12 12 11 12 11 12 10 6 1 6 9 5 7 7 8 8 8 9 9 10 10 10 11 12 12 12 13 14 14 15 16 16 18 17
16 14 14 13 13 13 12 12 11 12 11 11 11 10 8 6 6 2 10 7 6 7 7 7 7 8 8 9 9 10 11 11 11 12 12 13 13 14 15 15 16 19 18
15 16 15 13 12 12 11 11 10 10 9 9 8 8 7 7 5 7 6 6 6 7 7 7 7 7 8 9 10 10 10 11 12 12 12 12 12 14 15 16 16 17 17
13 12 13 12 11 11 10 10 9 9 9 8 9 7 7 5 6 6 6 6 6 6 7 7 7 7 8 8 10 10 11 11 12 12 12 11 11 12 15 15 16 16 16
12 12 11 12 11 10 10 9 9 9 9 9 9 6 6 4 6 6 6 5 6 6 6 6 7 7 8 9 9 10 11 12 12 13 13 12 10 13 13 15 15 16 17
12 12 12 11 11 10 9 9 8 8 8 8 7 6 6 6 5 5 5 5 5 5 6 6 6 7 8 8 8 10 11 12 12 13 14 13 11 13 12 14 15 17 17
12 12 12 11 9 9 9 8 8 8 7 7 6 6 6 5 5 5 5 5 4 5 5 5 6 8 8 8 8 10 10 11 12 13 17 13 13 15 14 15 15 19 17
10 10 10 10 8 9 8 8 7 7 6 6 6 5 5 4 4 4 4 3 4 4 5 5 6 8 9 10 12 14 13 12 14 14 12 16 15 18 15 15 16 16 19
9 9 8 7 7 7 7 7 6 6 6 5 5 4 4 3 3 3 3 4 5 4 5 5 6 9 8 8 13 11 9 11 14 16 14 13 13 13 13 17 20 15 19
Wind_Direction
132 128 129 129 133 136 135 132 135 133 127 122 122 121 118 118 106 98 102 105 95 82 60 43 37 12 3 2 336 346 325 338 320 328 317 329 316 327 322 325 317 311 319
129 127 131 129 129 127 128 127 135 127 128 119 124 120 114 125 124 127 114 102 85 75 66 51 32 19 5 16 342 357 348 332 325 316 329 320 329 326 331 323 318 323 321
129 132 127 125 121 118 119 124 125 125 119 118 121 116 113 118 123 116 100 96 94 82 66 51 38 25 20 2 352 349 345 334 322 324 319 327 328 334 331 321 330 324 321
131 128 123 122 117 119 126 126 122 124 119 117 111 106 113 113 110 103 111 104 91 79 70 54 41 32 18 8 357 355 354 330 337 325 324 329 336 345 329 330 330 332 327
124 120 119 116 115 120 121 117 116 114 115 110 106 107 102 105 87 116 102 97 94 82 67 75 51 39 38 24 354 353 345 340 334 333 331 337 342 341 338 335 324 326 334
119 119 120 116 117 116 119 113 116 113 110 107 105 100 95 84 32 15 78 90 84 72 68 57 68 38 10 9 17 326 336 343 339 339 335 340 339 332 335 330 325 331 326
118 118 114 115 120 117 117 112 112 109 106 104 100 98 91 89 39 29 43 87 85 74 55 37 29 36 10 350 349 295 203 204 359 323 336 338 330 338 329 325 328 320 322
117 116 115 115 115 110 109 106 105 108 106 102 99 94 93 85 45 46 92 95 85 68 48 39 34 27 15 345 331 351 351 2 357 346 334 331 330 327 325 321 309 320 312
119 117 118 118 114 111 105 107 107 107 107 103 102 101 100 103 27 350 124 98 86 78 76 43 27 26 8 345 352 357 351 5 343 308 259 259 262 259 263 311 341 333 332
119 116 115 113 108 105 108 107 110 108 107 103 99 97 97 96 37 15 9 90 77 93 75 77 57 26 2 348 7 3 358 355 345 343 350 350 343 346 306 340 337 336 333
114 108 103 103 103 105 109 110 112 107 109 109 106 99 92 81 59 33 11 64 66 69 54 54 44 3 336 354 3 15 349 314 344 348 351 355 351 350 350 346 345 330 332
109 102 104 104 106 110 111 113 113 117 116 116 114 108 94 84 66 57 43 35 12 68 48 42 49 320 306 27 13 329 307 317 358 355 356 359 353 352 345 343 336 333 333
107 105 107 109 110 112 117 118 121 125 126 124 117 111 109 105 98 97 83 73 39 67 52 45 273 263 318 98 30 321 350 10 0 1 357 357 353 350 339 343 336 341 336
107 108 110 109 113 117 118 117 117 117 119 116 111 107 106 98 81 80 106 117 162 102 173 85 312 276 291 4 10 17 18 12 359 1 355 352 350 349 352 343 341 347 339
106 105 108 110 107 100 78 83 85 51 69 110 110 108 102 85 62 53 35 39 36 25 308 36 28 26 26 20 18 17 17 7 7 2 358 353 352 345 352 341 348 350 344
110 111 112 116 114 112 103 92 57 59 57 56 53 80 78 85 83 72 57 29 338 312 48 38 31 26 21 15 11 9 12 11 3 0 358 356 355 342 345 343 351 355 346
110 119 114 114 116 115 112 109 105 79 69 67 71 67 69 92 96 101 103 114 5 352 46 39 31 26 18 14 9 7 6 10 355 0 359 358 356 337 342 346 352 352 346
113 110 114 114 114 115 117 118 119 113 109 104 72 85 82 85 83 358 262 259 71 54 45 36 28 22 18 10 7 7 359 5 357 0 359 1 353 342 341 348 351 344 344
110 109 113 111 108 115 119 114 112 113 111 111 117 116 121 139 148 232 304 53 47 43 37 36 25 19 16 8 8 3 357 4 354 358 358 1 350 343 341 347 346 336 335
98 91 107 118 119 114 114 114 113 112 112 111 112 119 140 194 87 63 55 49 47 42 31 27 21 18 17 7 4 1 357 3 358 357 355 356 349 340 342 345 341 340 345
117 115 107 113 113 114 112 111 111 110 105 97 86 64 354 60 72 66 58 48 38 37 25 15 20 12 12 8 4 0 357 360 357 351 351 349 347 338 341 344 333 342 343
119 113 111 111 113 115 113 113 113 114 112 106 101 101 291 82 73 67 61 49 45 37 24 12 12 13 11 6 4 356 356 358 354 344 347 341 344 337 338 343 335 344 343
111 113 114 105 100 121 118 114 112 110 108 109 111 105 88 78 77 71 61 48 38 30 21 16 9 10 14 3 5 357 2 359 345 336 343 333 337 346 337 339 340 344 344
114 113 114 126 123 114 114 106 96 81 105 106 98 91 84 78 80 75 55 41 30 26 19 13 14 14 5 0 6 358 18 357 334 342 333 326 336 340 346 339 344 344 343
116 119 116 122 131 108 126 120 120 119 112 110 107 107 101 98 87 70 47 35 34 17 14 5 15 1 9 359 12 358 5 337 330 333 328 318 337 340 352 336 346 342 348
122 124 124 122 119 124 121 124 123 124 118 119 125 114 109 97 81 55 22 27 12 11 358 9 8 356 350 6 19 342 325 338 333 327 320 308 339 343 353 333 349 346 347